User: anonymous   Login
Location: Unspecified
(0.0000°N, 0.0000°E)
Time: 00:30:55
(UTC+02:00)
Language:

Resurs 1-3 - Orbit

View from above orbital plane
View from above orbital plane
View from above satellite
View from above satellite

Ground track
Ground track

The orbit data is extracted from the following two-line orbital elements,

1 23342U 94074A   16243.55185198  .00000063  00000-0  15721-4 0  9995
2 23342  98.1151 273.7860 0001138  66.8316 293.3015 14.79192081174813
Epoch (UTC): 30 August 2016 13:14:40
Eccentricity: 0.0001138
inclination: 98.1151°
perigee height: 631 km
apogee height: 632 km
right ascension of ascending node: 273.7860°
argument of perigee: 66.8316°
revolutions per day: 14.79192081
mean anomaly at epoch: 293.3015°
orbit number at epoch: 17481

The dashed part of the orbit path shows where the satellite is in the earth's shadow,  

DLR